Weather History for KGUS - December, 2013

Change the Weather History Date:

Monday, December 16, 2013

  Actual Average Record
Temperature  
Mean Temperature 18 °F -  
Max Temperature 23 °F 34 °F 57 °F (2006)
Min Temperature 13 °F 23 °F 10 °F (2007)
Degree Days  
Heating Degree Days 47    
Moisture  
Dew Point 15 °F    
Average Humidity 93    
Maximum Humidity 100    
Minimum Humidity 79    
Precipitation  
Precipitation 0.09 in - - ()
Sea Level Pressure  
Sea Level Pressure 30.08 in    
Wind  
Wind Speed 5 mph (ENE)    
Max Wind Speed 13 mph    
Max Gust Speed -    
Visibility 6 miles    
Events Fog , Rain , Snow    
Averages and records for this station are not official NWS values.
T = Trace of Precipitation, MM = Missing Value Source: NWS Daily Summary

Daily Weather History Graph

Daily Weather History Graph

Search for Another Location

Airport or City:

Trip Planner

Search our weather history database for the weather conditions in past years. The results will help you decide how hot, cold, wet, or windy it might be!

Date:

Astronomy

Dec. 16, 2013 Rise Set
Actual Time 8:02 AM EST 5:18 PM EST
Civil Twilight 7:31 AM EST 5:49 PM EST
Nautical Twilight 6:56 AM EST 6:24 PM EST
Astronomical Twilight 6:23 AM EST 6:57 PM EST
Moon 5:08 PM EST (12/16) 7:09 AM EST (12/16)
Length of Visible Light 10h 18m
Length of Day
9h 16m
Full, 100% of the Moon is Illuminated
Dec 16
Full
Dec 17
Full
Dec 25
Last Quarter
Jan 1
New
Jan 7
First Quarter

Hourly Weather History & Observations

Time (EST) Temp. Windchill Dew Point Humidity Pressure Visibility Wind Dir Wind Speed Gust Speed Precip Events Conditions
12:14 AM 15.8 °F 5.1 °F 10.4 °F 79% 30.09 in 10.0 mi WNW 8.1 mph - N/A Snow Light Snow
12:44 AM 15.8 °F 7.2 °F 10.4 °F 79% 30.09 in 9.0 mi WNW 5.8 mph - N/A Snow Light Snow
12:49 AM 14.0 °F 5.1 °F 10.4 °F 86% 30.09 in 9.0 mi WNW 5.8 mph - N/A Snow Light Snow
12:54 AM 14.0 °F 5.1 °F 10.4 °F 86% 30.09 in 10.0 mi WNW 5.8 mph - N/A Snow Light Snow
12:58 AM 14.9 °F 7.5 °F 10.9 °F 84% 30.15 in 10.0 mi WNW 4.6 mph - 0.00 in Snow Light Snow
1:03 AM 14.0 °F 5.1 °F 10.4 °F 86% 30.09 in 9.0 mi WNW 5.8 mph - N/A Snow Light Snow
1:20 AM 14.0 °F 5.1 °F 12.2 °F 93% 30.09 in 6.0 mi WNW 5.8 mph - N/A Snow Light Snow
1:30 AM 14.0 °F 5.1 °F 12.2 °F 93% 30.09 in 6.0 mi WNW 5.8 mph - N/A Snow Light Snow
1:35 AM 14.0 °F 5.1 °F 12.2 °F 93% 30.09 in 6.0 mi WNW 5.8 mph - N/A Snow Light Snow
1:50 AM 14.0 °F 5.1 °F 12.2 °F 93% 30.09 in 6.0 mi WNW 5.8 mph - N/A Snow Light Snow
1:58 AM 14.2 °F 5.3 °F 12.6 °F 93% 30.15 in 5.0 mi NW 5.8 mph - 0.00 in Snow Light Snow
2:58 AM 13.6 °F 6.0 °F 12.4 °F 95% 30.16 in 6.0 mi North 4.6 mph - 0.00 in Snow Light Snow
3:07 AM 14.0 °F - 12.2 °F 93% 30.10 in 6.0 mi North 1.2 mph - N/A Snow Light Snow
3:12 AM 14.0 °F - 12.2 °F 93% 30.10 in 4.0 mi Calm Calm - N/A Snow Light Snow
3:17 AM 14.0 °F - 12.2 °F 93% 30.10 in 4.0 mi Calm Calm - N/A Snow Light Snow
3:22 AM 14.0 °F - 12.2 °F 93% 30.10 in 4.0 mi North 2.3 mph - N/A Snow Light Snow
3:27 AM 14.0 °F - 12.2 °F 93% 30.10 in 4.0 mi North 2.3 mph - N/A Snow Light Snow
3:32 AM 14.0 °F - 12.2 °F 93% 30.10 in 5.0 mi North 2.3 mph - N/A Snow Light Snow
3:52 AM 14.0 °F - 12.2 °F 93% 30.09 in 6.0 mi North 2.3 mph - N/A Snow Light Snow
3:58 AM 13.5 °F - 12.0 °F 94% 30.15 in 6.0 mi North 2.3 mph - 0.00 in Snow Light Snow
4:08 AM 14.0 °F - 12.2 °F 93% 30.09 in 4.0 mi NNE 2.3 mph - N/A Snow Light Snow
4:13 AM 14.0 °F - 12.2 °F 93% 30.09 in 3.0 mi NE 2.3 mph - N/A Snow Light Snow
4:18 AM 14.0 °F - 12.2 °F 93% 30.08 in 3.0 mi NE 2.3 mph - N/A Snow Light Snow
4:28 AM 14.0 °F 8.2 °F 12.2 °F 93% 30.08 in 3.0 mi NE 3.5 mph - N/A Snow Light Snow
4:48 AM 14.0 °F 8.2 °F 12.2 °F 93% 30.08 in 3.0 mi NE 3.5 mph - N/A Snow Light Snow
4:53 AM 14.0 °F 8.2 °F 12.2 °F 93% 30.08 in 3.0 mi ENE 3.5 mph - N/A Snow Light Snow
4:58 AM 13.3 °F 7.3 °F 13.1 °F 99% 30.14 in 3.0 mi ENE 3.5 mph - 0.01 in Snow Light Snow
5:13 AM 14.0 °F 8.2 °F 12.2 °F 93% 30.08 in 3.0 mi ENE 3.5 mph - N/A Snow Light Snow
5:18 AM 14.0 °F 8.2 °F 12.2 °F 93% 30.08 in 3.0 mi ENE 3.5 mph - N/A Snow Light Snow
5:23 AM 14.0 °F 8.2 °F 12.2 °F 93% 30.08 in 3.0 mi ENE 3.5 mph - N/A Snow Light Snow
5:36 AM 14.0 °F - 14.0 °F 100% 30.09 in 3.0 mi ENE 2.3 mph - N/A Snow Light Snow
5:51 AM 14.0 °F 8.2 °F 12.2 °F 93% 30.09 in 4.0 mi East 3.5 mph - N/A Snow Light Snow
5:58 AM 13.5 °F 7.5 °F 12.9 °F 98% 30.15 in 4.0 mi East 3.5 mph - 0.01 in Snow Light Snow
6:18 AM 14.0 °F 8.2 °F 12.2 °F 93% 30.10 in 5.0 mi NE 3.5 mph - N/A Snow Light Snow
6:23 AM 14.0 °F 6.5 °F 12.2 °F 93% 30.10 in 5.0 mi ENE 4.6 mph - N/A Snow Light Snow
6:58 AM 13.5 °F 5.8 °F 12.9 °F 98% 30.16 in 4.0 mi East 4.6 mph - 0.05 in Snow Light Snow
7:58 AM 13.8 °F 4.9 °F 13.1 °F 97% 30.15 in 7.0 mi East 5.8 mph - 0.00 in   Overcast
8:58 AM 14.2 °F 3.1 °F 13.3 °F 96% 30.15 in 10.0 mi East 8.1 mph - N/A   Overcast
9:58 AM 15.4 °F 3.8 °F 13.8 °F 93% 30.17 in 10.0 mi East 9.2 mph - N/A   Overcast
10:30 AM 15.8 °F 5.1 °F 14.0 °F 93% 30.11 in 10.0 mi East 8.1 mph - N/A   Overcast
10:58 AM 16.9 °F 5.5 °F 14.2 °F 89% 30.17 in 10.0 mi East 9.2 mph - N/A   Overcast
11:03 AM 17.6 °F 7.3 °F 14.0 °F 86% 30.11 in 10.0 mi East 8.1 mph - N/A   Overcast
11:13 AM 17.6 °F 6.4 °F 14.0 °F 86% 30.12 in 10.0 mi East 9.2 mph - N/A   Overcast
11:19 AM 17.6 °F 7.3 °F 14.0 °F 86% 30.11 in 10.0 mi East 8.1 mph - N/A Snow Light Snow
11:22 AM 17.6 °F 6.4 °F 14.0 °F 86% 30.11 in 10.0 mi East 9.2 mph - N/A   Overcast
11:23 AM 17.6 °F 6.4 °F 14.0 °F 86% 30.11 in 10.0 mi East 9.2 mph - N/A   Light Freezing Drizzle
11:58 AM 18.1 °F 7.9 °F 14.7 °F 86% 30.14 in 10.0 mi East 8.1 mph - 0.00 in   Overcast
12:58 PM 19.0 °F 10.0 °F 15.8 °F 87% 30.12 in 10.0 mi East 6.9 mph - N/A   Overcast
1:13 PM 19.4 °F 8.6 °F 15.8 °F 86% 30.05 in 10.0 mi East 9.2 mph - N/A   Overcast
1:58 PM 20.1 °F 11.3 °F 16.2 °F 85% 30.09 in 10.0 mi East 6.9 mph - N/A   Overcast
2:18 PM 21.2 °F 13.6 °F 15.8 °F 80% 30.03 in 10.0 mi East 5.8 mph - N/A   Overcast
2:58 PM 20.8 °F 10.4 °F 17.1 °F 85% 30.07 in 10.0 mi ESE 9.2 mph - N/A   Overcast
3:58 PM 20.1 °F 8.1 °F 18.1 °F 92% 30.06 in 10.0 mi ESE 11.5 mph - N/A   Overcast
4:48 PM 19.4 °F 8.6 °F 19.4 °F 100% 30.01 in 9.0 mi ESE 9.2 mph - N/A Snow Light Snow
4:58 PM 19.9 °F 7.3 °F 19.6 °F 99% 30.06 in 9.0 mi ESE 12.7 mph - 0.00 in Snow Light Snow
5:27 PM 19.4 °F 8.6 °F 19.4 °F 100% 30.01 in 0.5 mi SE 9.2 mph - N/A Snow Snow
5:48 PM 19.4 °F 7.9 °F 19.4 °F 100% 30.01 in 0.1 mi ESE 10.4 mph - N/A Snow Heavy Snow
5:58 PM 19.9 °F 10.1 °F 19.9 °F 100% 30.06 in 0.5 mi SE 8.1 mph - 0.02 in Snow Snow
6:09 PM 19.4 °F 9.5 °F 19.4 °F 100% 30.01 in 4.0 mi ESE 8.1 mph - N/A Snow Light Snow
6:26 PM 19.4 °F 9.5 °F 19.4 °F 100% 30.00 in 6.0 mi SE 8.1 mph - N/A Snow Light Snow
6:58 PM 20.7 °F 13.0 °F 20.7 °F 100% 30.06 in 7.0 mi SE 5.8 mph - 0.00 in Snow Light Snow
7:47 PM 21.2 °F 13.6 °F 21.2 °F 100% 29.99 in 4.0 mi SE 5.8 mph - N/A   Overcast
8:05 PM 21.2 °F - 21.2 °F 100% 29.99 in 1.0 mi SE 2.3 mph - N/A Snow Light Snow
8:22 PM 21.2 °F - 21.2 °F 100% 29.99 in 0.2 mi Calm Calm - N/A Fog Fog
8:40 PM 21.2 °F - 21.2 °F 100% 29.99 in 0.2 mi Calm Calm - N/A Fog Light Freezing Fog
8:58 PM 21.7 °F - 21.7 °F 100% 30.05 in 0.2 mi NW 2.3 mph - N/A Fog Light Freezing Fog
9:58 PM 22.1 °F - 22.1 °F 100% 30.04 in 0.5 mi Variable 2.3 mph - 0.00 in Fog Light Freezing Fog
10:30 PM 23.0 °F 17.0 °F 23.0 °F 100% 30.00 in 0.5 mi West 4.6 mph - N/A Fog Light Freezing Drizzle
10:58 PM 21.9 °F 15.7 °F 21.9 °F 100% 30.05 in 0.8 mi West 4.6 mph - 0.00 in   Light Freezing Drizzle
11:48 PM 23.0 °F 17.0 °F 23.0 °F 100% 29.99 in 1.0 mi Variable 4.6 mph - N/A Rain Light Freezing Rain
11:58 PM 23.0 °F 17.0 °F 23.0 °F 100% 30.05 in 1.2 mi Variable 4.6 mph - 0.00 in Rain Light Freezing Rain